Seattle, WA
on Saturday, January 26, 2013

Saturday
Previous Day Next Day
Daily Summary
 ActualAverageRecord
Temperature
Mean Temperature °F 43°F  
Max Temperature 47°F 48°F 58°F (2003)
Min Temperature 39°F 37°F 9°F (1957)
Degree Days
Heating Degree Days 22 22  
Month to date heating degree days 717 600  
Since 1 July heating degree days 2468 2538  
Cooling Degree Days 0 0  
Month to date cooling degree days 0 0  
Year to date cooling degree days 0 0  
Moisture
Dew Point 37°F   
Average Humidity 82    
Maximum Humidity 93    
Minimum Humidity 70    
Precipitation
Precipitation 0.09 in 0.16 in 1.03 in (1950)
Month to date precipitation 3.35 4.78  
Year to date precipitation 3.35 4.78  
Snow
Snow 0.00 in in 10.00 in (1950)
Month to date snowfall T  
Since 1 July snowfall 0.6  
Snow Depth 0.00 in   
Wind
Wind Speed 10 mph   
Max Wind Speed 21 mph   
Max Gust Speed 29 mph   
Visibility 10 miles   
Events Rain   

Key: T is trace of precipitation, MM is missing value
Source: NWS Daily Summary
Time(PST)TemperatureDew PointHumidity Pressure Visibility Wind DirectionWind SpeedGust SpeedPrecipitationEvents Conditions
12:53 AM 41.0°F 39.0°F 93% 29.94 in 10.0 miles SSE 5.8 mph - N/A   Overcast
1:53 AM 39.9°F 37.0°F 89% 29.93 in 10.0 miles SE 6.9 mph - N/A   Mostly Cloudy
2:53 AM 39.9°F 37.0°F 89% 29.92 in 10.0 miles SE 6.9 mph - N/A   Overcast
3:53 AM 39.9°F 37.0°F 89% 29.92 in 10.0 miles SE 5.8 mph - 0.00 in Rain Light Rain
4:53 AM 39.9°F 37.0°F 89% 29.91 in 7.0 miles ESE 5.8 mph - 0.05 in Rain Light Rain
5:29 AM 39.2°F 37.4°F 93% 29.88 in 10.0 miles SE 5.8 mph - 0.02 in   Overcast
5:53 AM 39.0°F 37.9°F 96% 29.91 in 4.0 miles Calm Calm - 0.02 in Rain Light Rain
6:53 AM 39.9°F 37.0°F 89% 29.91 in 10.0 miles South 6.9 mph - 0.00 in   Overcast
7:53 AM 41.0°F 37.0°F 86% 29.92 in 10.0 miles South 9.2 mph - 0.00 in   Overcast
8:53 AM 42.1°F 37.9°F 85% 29.93 in 9.0 miles SSW 12.7 mph - 0.02 in Rain Light Rain
9:53 AM 43.0°F 37.9°F 82% 29.95 in 10.0 miles South 15.0 mph 20.7 mph 0.00 in   Overcast
10:53 AM 44.1°F 37.9°F 79% 29.96 in 10.0 miles South 17.3 mph 24.2 mph N/A   Overcast
11:53 AM 46.0°F 37.0°F 71% 29.96 in 10.0 miles SSW 15.0 mph - N/A   Overcast
12:53 PM 46.0°F 37.0°F 71% 29.95 in 10.0 miles SW 10.4 mph 20.7 mph N/A   Overcast
1:10 PM 46.4°F 37.4°F 71% 29.92 in 10.0 miles SW 13.8 mph - N/A   Overcast
1:53 PM 46.0°F 37.0°F 71% 29.95 in 10.0 miles SW 16.1 mph 23.0 mph 0.00 in   Mostly Cloudy
2:53 PM 46.9°F 37.0°F 68% 29.96 in 10.0 miles SW 13.8 mph 21.9 mph N/A   Mostly Cloudy
3:53 PM 45.0°F 36.0°F 71% 29.96 in 10.0 miles SW 15.0 mph - N/A   Overcast
4:32 PM 44.6°F 35.6°F 71% 29.94 in 10.0 miles SW 11.5 mph 20.7 mph N/A   Overcast
4:53 PM 44.1°F 35.1°F 71% 29.97 in 10.0 miles SSW 11.5 mph - N/A   Mostly Cloudy
5:53 PM 43.0°F 36.0°F 76% 29.99 in 10.0 miles South 10.4 mph - N/A   Overcast
6:53 PM 42.1°F 37.0°F 82% 30.01 in 10.0 miles SSW 9.2 mph - N/A   Overcast
7:53 PM 41.0°F 36.0°F 82% 30.02 in 10.0 miles South 9.2 mph - N/A   Overcast
8:31 PM 42.8°F 37.4°F 81% 30.00 in 10.0 miles SSW 10.4 mph - N/A   Overcast
8:53 PM 41.0°F 37.0°F 86% 30.03 in 10.0 miles SSW 9.2 mph - N/A   Overcast
9:53 PM 41.0°F 37.0°F 86% 30.04 in 10.0 miles SSW 8.1 mph - N/A   Overcast
10:53 PM 42.1°F 37.0°F 82% 30.05 in 10.0 miles SSW 12.7 mph - N/A   Overcast
11:53 PM 42.1°F 37.0°F 82% 30.06 in 10.0 miles SW 9.2 mph - N/A   Overcast
Moon Phase
Jan. 26 Jan. 26 Feb. 03 Feb. 10 Feb. 17
Sunrise:07:42 AM (PST) Moon Rise:05:06 PM (PST)1/26
Sunset:05:02 PM (PST) Moon Set:07:00 AM (PST)1/26

Copyright © 2014 The Weather Underground, Inc.